Regional Weather Roundup
Issued by NWS

Home | Current Version | Previous Version | Graphics & Text | Print | Product List | Glossary On
Versions: 1 2 3 4 5 6 7 8 9 10 11 12 13 14 15 16 17 18 19 20 21 22 23 24 25 26 27
000
ASUS45 KSLC 240610
RWRUT

UTAH REGIONAL WEATHER ROUNDUP
NATIONAL WEATHER SERVICE SALT LAKE CITY UT
1200 AM MDT FRI MAR 24 2017

UTZ001>011-023>025-240700-

NORTHERN UTAH

CITY           SKY/WX    TMP DP  RH WIND       PRES   REMARKS
BRIGHAM CITY     N/A     38  36  91 CALM      30.10R
HILL AFB       CLEAR     38  33  81 E5        30.09R WCI  35
LOGAN          PTCLDY    41  37  86 CALM      30.08R
OGDEN          CLEAR     34  33  96 S7        30.09R WCI  28
SALT LAKE CITY CLEAR     36  34  92 CALM      30.09R
WENDOVER       CLEAR     46  22  38 W10       30.11R
HEBER CITY     CLOUDY    37  34  87 CALM      30.05R

$$

UTZ011>015-024>027-240700-

CENTRAL/NORTHEAST UTAH

CITY           SKY/WX    TMP DP  RH WIND       PRES   REMARKS
PROVO AIRPORT  CLOUDY    43  35  73 SW8       30.11R
MOAB/CANYONLAN MOCLDY    45  32  60 W13       29.88R
DELTA          CLEAR     32  32 100 S9        30.13R WCI  24
PRICE          PTCLDY    41  29  62 NW15G32   29.94R
ROOSEVELT      CLEAR     41  32  70 W7        29.94R
VERNAL         CLOUDY    45  30  55 NE10      29.93R

$$

UTZ013>016-019>022-027-240700-

SOUTHERN UTAH

CITY           SKY/WX    TMP DP  RH WIND       PRES   REMARKS
BRYCE CANYON   MOCLDY    30  24  78 NW23G31   30.09R WCI  17
CEDAR CITY     CLEAR     33  27  78 SE6       30.13R WCI  28
MILFORD        CLEAR    N/A N/A N/A SW8       30.14R
HANKSVILLE     PTCLDY    43  32  65 W7        29.97R
BLANDING       MOCLDY    42  31  63 NW17      29.94R

$$

REGIONAL REPORTS     COLORADO/ARIZONA

CITY           SKY/WX    TMP DP  RH WIND       PRES   REMARKS
CRAIG, CO      CLOUDY    39  33  79 VRB5      29.88R
GRAND JUNCTION CLOUDY    45  38  76 N9        29.85R
RIFLE, CO      CLOUDY    46  36  68 W15       29.82S
MONTROSE, CO   CLOUDY    41  37  86 NW23      29.82S
CORTEZ, CO     CLOUDY    38  36  92 W6        29.87R WCI  33
COLORADO CITY    N/A     37  36  93 W6        30.15R WCI  33
PAGE, AZ       CLEAR     50  50 100 W14G22    29.99R
GRAND CANYON   PTCLDY    32  30  92 SW6       30.14R WCI  26
KINGMAN, AZ    CLEAR     44  28  53 E3        30.11R
FLAGSTAFF, AZ  CLEAR     33  27  78 NW10G24   30.09R WCI  25

$$

REGIONAL REPORTS    NEVADA/IDAHO/WYOMING

CITY           SKY/WX    TMP DP  RH WIND       PRES   REMARKS
LAS VEGAS, NV  PTCLDY    60  36  40 N3        30.08R
ELY, NY        CLEAR     31  22  69 SE5       30.17R WCI  26
ELKO, NV       CLEAR     35  28  75 CALM      30.13R
POCATELLO, ID  CLEAR     42  23  46 SW18G26   30.09R
BURLEY, ID     CLEAR     36  24  62 S6        30.08S WCI  31
FORT BRIDGER,  CLOUDY    36  34  92 W14       30.06R WCI  27
EVANSTON, WY   CLOUDY    28  25  88 SW5       30.06R WCI  23
ROCK SPRINGS,  CLOUDY    36  30  79 NE9       30.00R WCI  29

$$




USA.gov is the U.S. government's official web portal to all federal, state and local government web resources and services.